Wind_Speed
46 46 47 47 49 51 50 46 42 40 38 38 40 40 39 40 42 44 44 44 40 36 37 38 37 35 33 30 28 27 25 23 21 20 19 17 16 15 14 14 12 11 10 9 8 7 6 5 5
48 48 49 50 52 53 50 46 44 42 41 42 42 43 43 42 44 45 45 45 42 38 38 40 40 38 36 33 31 29 28 25 24 22 21 19 18 17 16 15 14 13 12 10 9 8 8 7 6
50 50 51 53 55 53 50 47 46 46 45 46 45 45 45 45 45 46 47 46 44 41 40 41 42 41 38 36 33 32 30 28 26 24 23 22 20 19 18 17 16 15 13 12 11 10 9 8 8
51 52 54 56 55 52 50 48 48 49 49 49 48 47 47 47 46 47 47 46 46 45 42 43 44 43 41 39 36 34 32 30 28 27 25 24 22 20 19 19 18 16 15 14 13 12 11 10 9
52 53 55 56 54 52 51 50 49 51 53 51 51 49 49 49 48 49 48 48 47 47 45 45 46 46 44 42 39 36 34 32 31 29 27 26 24 22 21 20 20 18 17 16 15 14 13 12 11
52 53 55 55 53 52 52 52 53 52 54 54 54 52 50 50 50 49 48 50 50 49 48 48 48 48 47 44 42 39 37 35 33 32 30 28 26 24 23 22 21 20 18 17 16 15 14 13 12
52 53 53 53 53 53 53 54 55 55 55 56 55 56 53 52 51 51 50 50 51 51 50 51 51 50 49 47 45 42 39 37 36 34 32 30 28 27 25 24 23 22 20 19 18 17 16 15 14
51 53 53 52 53 54 54 56 56 57 56 56 57 56 54 54 53 52 51 51 51 52 52 52 53 53 52 50 47 44 42 40 39 37 34 32 30 29 27 25 24 23 22 21 20 19 18 16 15
50 52 51 51 53 54 56 57 58 59 59 58 58 57 56 56 54 53 53 52 52 53 54 54 55 54 54 52 50 47 45 43 41 39 37 34 32 30 29 27 26 25 24 23 22 20 19 18 17
48 49 48 50 52 54 56 58 58 59 60 59 59 59 58 57 55 54 54 53 52 53 55 56 56 55 56 55 52 50 47 45 43 41 39 36 34 32 31 29 28 27 26 25 23 22 21 20 19
46 46 47 49 51 53 54 56 57 59 58 57 58 58 57 58 56 54 54 54 54 55 55 56 57 56 56 57 55 53 50 48 45 43 41 39 36 35 33 31 30 29 28 26 25 24 23 22 21
45 44 45 47 48 50 51 53 54 56 55 56 57 57 57 58 56 54 54 54 55 56 57 57 58 56 55 56 56 55 53 50 48 46 43 41 38 36 35 33 32 31 29 28 27 26 25 24 23
41 40 41 42 43 44 46 48 49 50 51 52 54 55 56 58 59 58 55 55 55 57 58 59 59 58 56 56 57 57 55 53 50 48 45 43 40 39 37 35 34 33 31 30 28 27 27 26 25
36 36 35 35 36 38 40 41 44 44 48 50 51 53 55 56 58 58 57 56 55 56 57 59 59 58 56 55 54 55 57 55 53 50 47 45 43 41 39 37 36 34 33 32 30 29 28 27 27
31 30 29 28 30 31 35 35 35 39 43 45 46 48 52 54 56 57 57 57 56 57 58 57 59 59 57 55 53 53 56 57 55 52 50 47 45 43 41 39 38 36 35 34 32 31 30 29 29
24 24 23 23 26 28 31 29 28 33 38 40 42 43 46 50 52 55 56 58 58 56 57 57 56 57 57 57 53 53 55 57 56 54 51 49 47 45 43 41 40 38 37 35 34 33 32 31 30
18 17 18 19 21 23 24 24 25 29 32 34 37 40 42 46 49 52 55 58 57 56 56 56 56 56 56 57 54 53 53 55 56 55 53 51 49 47 45 43 42 41 39 37 36 35 34 33 32
12 12 13 14 16 17 18 20 21 23 26 28 30 34 38 42 45 47 50 54 55 56 54 54 54 54 54 54 54 52 51 53 56 55 54 52 50 48 46 45 44 43 41 40 39 37 36 34 33
8 8 10 11 13 13 14 14 15 17 19 20 23 26 31 36 39 41 45 50 52 52 51 52 54 52 50 52 52 51 50 50 54 55 54 53 51 49 48 46 46 45 43 41 41 39 38 36 35
7 8 9 9 10 10 8 8 10 11 12 13 17 20 24 30 34 36 41 45 48 48 49 50 50 48 48 49 49 47 47 48 51 54 54 53 52 50 49 48 47 45 43 43 42 41 39 37 36
5 5 5 6 6 5 5 5 4 6 8 10 14 16 20 24 29 34 39 40 41 43 44 48 49 48 46 45 46 47 47 48 49 51 52 52 52 52 51 50 48 47 45 44 43 41 40 38 37
3 2 2 2 2 3 3 5 2 2 5 8 10 12 17 20 25 28 34 36 35 37 39 41 43 45 46 44 44 45 46 47 48 49 49 50 51 52 52 50 49 48 46 44 44 43 42 39 38
2 3 2 3 3 3 3 3 3 3 3 4 6 8 12 17 19 22 26 30 31 34 34 35 38 40 40 41 43 42 42 43 44 46 46 45 45 47 48 49 49 48 47 46 44 43 42 40 39
6 6 6 6 5 4 4 4 5 5 5 5 7 8 10 13 14 17 20 23 27 29 31 33 36 36 37 37 39 41 40 39 41 42 43 43 44 45 46 48 48 47 47 45 44 43 42 41 41
7 7 7 7 6 6 6 6 7 8 8 8 8 8 9 10 11 13 15 16 19 22 26 28 29 28 30 34 36 38 38 37 39 40 41 43 44 44 45 46 46 45 45 44 44 43 42 41 41
7 8 9 9 8 8 8 9 10 10 10 10 10 9 8 7 8 9 9 10 12 14 17 20 23 23 24 27 31 34 36 36 36 37 39 41 42 42 43 43 44 45 45 44 44 44 43 43 44
9 10 11 11 10 10 11 12 12 12 12 12 11 9 8 8 8 7 7 9 11 11 12 13 15 20 21 21 23 29 33 35 36 37 37 38 39 40 41 41 42 42 43 43 44 44 44 44 45
10 11 12 12 13 12 12 12 12 13 13 13 13 13 11 11 10 8 6 7 9 9 10 10 12 14 16 17 18 22 27 30 33 35 36 36 37 39 42 43 42 42 42 42 44 44 43 43 44
10 10 11 12 12 12 13 13 13 13 13 14 14 14 14 13 11 9 7 6 6 7 7 9 10 12 14 15 15 17 21 24 27 30 30 31 32 33 35 37 38 40 42 43 43 42 41 42 43
10 10 10 11 13 13 13 13 13 13 13 13 13 13 13 13 11 9 6 5 4 6 7 7 8 9 11 12 13 15 18 21 24 26 29 31 33 34 35 36 37 38 40 40 41 41 41 41 43
Wind_Direction
264 264 263 262 262 262 263 266 268 267 265 262 261 259 257 252 249 248 248 246 242 238 237 235 235 235 235 235 236 236 236 236 236 236 236 237 238 240 243 244 244 243 243 244 245 246 245 241 241
264 263 262 261 261 263 265 267 267 266 263 260 258 258 257 254 250 250 248 248 244 240 238 237 235 234 234 234 234 235 236 236 235 235 235 236 237 240 243 245 245 243 243 243 244 245 245 244 243
264 263 262 262 262 264 267 267 265 262 259 259 257 257 257 255 251 250 249 249 247 242 238 237 235 234 234 233 233 233 234 235 235 234 234 235 236 239 242 244 245 244 243 243 243 244 245 245 244
264 263 262 262 263 264 265 265 264 262 259 258 257 256 255 254 253 251 250 249 248 243 239 236 235 234 233 233 233 233 233 234 234 234 234 234 235 237 241 244 244 244 244 244 243 244 244 245 246
264 263 263 263 263 263 263 261 260 261 260 259 258 257 255 254 252 250 249 247 246 244 240 236 235 234 233 232 232 232 232 233 234 234 233 234 235 237 239 243 243 243 244 244 244 244 244 246 248
266 264 264 263 262 261 260 259 258 258 259 259 258 257 256 255 252 250 248 246 244 242 240 236 235 234 233 232 231 231 231 232 233 234 233 233 235 237 238 241 242 243 244 244 245 244 245 246 249
267 265 264 263 261 260 259 258 257 257 257 257 257 256 256 254 252 250 248 245 242 240 239 237 234 233 232 231 230 230 230 231 232 233 233 233 234 236 238 239 241 242 243 244 246 246 246 247 250
268 266 264 263 261 260 259 258 257 256 256 255 254 255 254 252 251 249 247 244 241 239 237 236 234 233 232 231 230 230 230 230 231 231 232 232 233 235 237 239 241 242 243 244 246 247 248 249 251
269 267 265 263 261 259 258 258 257 256 255 254 253 253 252 251 250 248 246 244 240 237 236 234 232 231 230 229 229 229 229 230 230 231 232 232 233 235 238 240 241 242 243 245 247 248 250 251 252
272 270 267 263 261 260 259 258 258 257 256 254 252 251 250 249 249 247 244 242 240 236 234 232 230 229 229 228 228 227 228 229 230 231 232 233 233 235 238 240 241 242 243 245 247 249 251 252 253
273 271 267 264 262 261 260 259 257 256 255 254 251 249 247 245 245 244 242 239 237 234 232 230 228 227 227 227 227 227 227 228 230 231 232 232 233 235 238 240 242 243 244 245 247 249 252 254 255
276 273 269 265 263 263 261 259 256 256 254 252 250 247 244 241 241 242 239 235 233 231 229 227 225 225 224 225 225 226 226 227 229 230 231 232 234 236 237 239 242 243 244 244 246 250 252 254 255
278 274 270 266 264 263 261 258 257 256 253 250 249 246 242 240 239 238 235 232 229 227 226 225 223 224 224 225 225 226 225 226 227 229 230 231 233 235 237 239 241 243 244 245 247 250 253 254 255
279 274 270 266 264 264 262 259 258 256 252 248 245 243 240 239 238 236 232 229 227 225 224 223 221 221 222 223 224 224 224 225 226 228 229 230 232 234 237 239 241 243 244 245 247 250 252 254 256
276 272 268 266 265 264 263 261 260 255 251 247 244 241 237 236 233 231 228 226 224 222 221 220 220 220 220 221 223 223 223 224 224 226 228 229 231 234 236 238 240 242 243 245 247 249 252 254 257
275 271 268 266 266 265 266 264 259 256 251 246 241 240 235 233 230 228 225 223 221 219 220 219 218 220 220 219 221 221 222 222 223 224 226 228 230 232 234 237 239 242 243 244 247 250 252 254 256
274 272 271 269 269 268 270 268 261 259 254 247 241 236 233 230 226 223 222 220 218 218 219 219 216 219 219 218 221 222 224 223 221 223 225 227 229 231 233 236 239 241 242 244 247 249 252 254 256
276 276 277 276 273 271 275 274 265 260 253 247 241 234 230 225 222 221 219 217 216 216 216 217 214 216 218 218 222 223 224 224 222 222 224 225 228 230 233 235 238 240 242 245 247 249 252 254 257
276 280 282 280 278 282 288 283 269 261 253 247 237 232 226 221 218 218 216 215 213 214 213 213 214 215 216 216 219 221 223 224 223 222 223 225 227 230 232 235 239 241 242 244 246 250 252 254 257
277 288 287 281 287 295 302 295 274 254 242 231 225 223 217 215 213 213 214 213 214 213 212 212 212 213 215 214 216 220 222 224 223 223 224 226 227 229 231 235 238 240 242 245 248 252 252 254 257
281 296 297 300 305 320 323 324 297 243 225 217 218 213 212 213 212 211 210 210 214 212 211 211 210 212 212 212 215 218 220 223 224 225 226 227 229 231 234 236 238 240 243 246 249 252 253 255 257
277 302 318 344 9 12 1 18 6 234 206 199 206 207 207 207 205 207 210 211 214 212 211 210 208 210 212 214 216 218 220 223 226 227 228 230 232 234 236 238 239 242 245 246 249 252 254 255 257
108 94 76 76 81 66 41 53 79 135 158 185 196 198 197 196 198 206 208 209 211 207 206 206 205 206 210 212 216 218 219 221 224 227 229 231 232 234 237 239 241 243 245 247 249 252 254 255 257
103 90 89 88 84 70 65 83 97 115 114 134 155 167 180 183 186 197 202 205 208 205 204 204 205 209 210 213 216 218 219 221 225 228 229 232 234 236 239 242 243 245 248 250 251 253 255 258 259
100 91 95 90 88 93 91 86 92 103 112 122 132 142 166 177 180 187 191 201 207 205 207 205 209 210 212 215 217 219 221 224 228 231 232 234 236 239 242 244 245 248 250 251 252 256 259 260 260
99 95 94 94 99 102 99 91 99 106 110 112 119 132 147 161 171 177 179 183 192 200 206 207 211 212 214 217 220 222 224 227 230 232 234 236 239 242 244 245 248 250 251 253 254 257 260 261 261
109 108 105 103 97 101 99 100 101 106 111 114 119 126 137 141 144 150 170 182 187 194 197 198 205 213 216 218 225 227 231 233 235 238 241 243 244 246 248 249 250 251 253 255 255 257 260 260 260
112 114 115 107 102 105 105 104 106 112 115 114 116 120 127 138 137 138 143 164 183 188 191 199 207 210 216 222 228 232 236 239 242 245 245 247 248 252 253 253 254 254 254 255 258 260 261 261 262
120 118 116 114 111 114 112 108 107 113 117 116 115 119 123 130 135 132 130 150 180 196 204 215 221 225 227 228 229 233 236 239 243 245 247 251 252 254 255 255 256 256 256 257 259 260 262 262 262
122 116 112 113 115 117 116 111 113 117 121 120 120 123 127 128 130 131 130 145 175 206 213 218 231 237 238 239 243 244 244 246 250 251 251 252 254 256 257 256 258 259 259 259 261 260 262 261 261
Height
5775 5776 5777 5778 5779 5781 5783 5789 5792 5796 5798 5800 5802 5804 5807 5811 5813 5817 5819 5822 5829 5835 5838 5841 5844 5847 5850 5853 5856 5859 5861 5863 5864 5866 5867 5868 5869 5871 5872 5873 5873 5874 5874 5875 5875 5875 5876 5876 5876
5765 5766 5767 5768 5769 5771 5776 5781 5783 5787 5789 5791 5793 5795 5799 5802 5804 5807 5811 5815 5822 5829 5832 5835 5839 5842 5845 5849 5852 5854 5857 5859 5861 5863 5864 5865 5867 5868 5869 5871 5872 5872 5873 5873 5874 5874 5874 5875 5875
5754 5755 5756 5757 5759 5763 5768 5771 5773 5775 5778 5780 5784 5787 5790 5793 5796 5799 5804 5808 5814 5821 5826 5829 5833 5836 5840 5844 5847 5850 5853 5855 5857 5859 5861 5862 5864 5865 5867 5868 5870 5870 5871 5872 5872 5873 5873 5873 5874
5743 5743 5744 5747 5750 5756 5757 5760 5760 5762 5766 5770 5773 5777 5781 5784 5788 5791 5796 5801 5806 5813 5818 5822 5826 5830 5834 5838 5842 5845 5848 5851 5853 5855 5857 5859 5861 5862 5864 5866 5867 5868 5869 5870 5870 5871 5871 5872 5872
5731 5732 5733 5736 5741 5744 5745 5748 5749 5751 5754 5758 5762 5766 5770 5775 5778 5782 5787 5792 5798 5804 5810 5815 5819 5823 5828 5832 5836 5840 5843 5846 5849 5851 5853 5855 5857 5859 5861 5862 5864 5865 5867 5867 5868 5869 5869 5870 5870
5719 5719 5722 5725 5730 5732 5733 5735 5737 5740 5743 5747 5750 5754 5759 5763 5768 5773 5778 5784 5789 5795 5801 5806 5811 5816 5821 5825 5830 5834 5837 5841 5844 5846 5849 5851 5853 5855 5857 5859 5861 5862 5864 5865 5866 5866 5867 5868 5868
5708 5707 5711 5714 5716 5719 5721 5721 5724 5728 5732 5736 5738 5742 5747 5752 5757 5763 5768 5774 5780 5786 5792 5797 5803 5808 5813 5819 5823 5827 5831 5835 5838 5841 5844 5847 5849 5851 5854 5855 5857 5859 5860 5862 5863 5864 5865 5865 5866
5694 5696 5700 5702 5703 5706 5707 5707 5710 5714 5718 5723 5726 5730 5736 5740 5746 5752 5758 5763 5770 5776 5782 5788 5793 5799 5805 5811 5816 5820 5825 5828 5832 5836 5839 5842 5844 5847 5849 5852 5853 5855 5857 5858 5860 5861 5862 5862 5863
5681 5685 5689 5690 5689 5692 5692 5693 5697 5700 5704 5709 5713 5719 5724 5728 5734 5741 5746 5752 5759 5766 5772 5778 5784 5790 5796 5802 5808 5813 5818 5822 5825 5830 5833 5836 5839 5842 5845 5847 5849 5851 5853 5855 5856 5857 5858 5859 5860
5670 5673 5676 5675 5675 5676 5677 5679 5683 5686 5690 5696 5700 5705 5711 5716 5722 5728 5734 5741 5749 5756 5762 5768 5775 5780 5786 5793 5799 5805 5810 5815 5819 5824 5828 5831 5834 5837 5840 5843 5845 5847 5849 5850 5852 5854 5855 5856 5857
5659 5661 5661 5660 5660 5662 5664 5665 5668 5670 5676 5681 5685 5690 5696 5702 5709 5716 5723 5730 5738 5745 5752 5758 5765 5771 5776 5784 5791 5797 5803 5808 5812 5817 5821 5825 5829 5832 5835 5838 5840 5842 5844 5846 5848 5849 5851 5852 5853
5647 5648 5647 5647 5647 5648 5650 5651 5654 5656 5663 5666 5669 5674 5681 5688 5696 5704 5711 5719 5726 5734 5741 5748 5755 5762 5767 5774 5781 5788 5795 5800 5805 5810 5815 5819 5823 5827 5830 5832 5835 5837 5840 5842 5843 5845 5846 5848 5849
5635 5635 5634 5634 5634 5635 5636 5638 5640 5644 5648 5651 5655 5660 5667 5674 5681 5690 5699 5707 5715 5723 5730 5738 5745 5752 5758 5765 5772 5779 5786 5792 5798 5803 5808 5813 5817 5821 5824 5827 5830 5832 5834 5837 5838 5840 5841 5843 5844
5625 5624 5624 5623 5623 5623 5623 5626 5628 5632 5633 5637 5641 5647 5653 5660 5669 5677 5686 5695 5704 5713 5720 5728 5736 5743 5748 5755 5762 5770 5776 5783 5789 5795 5801 5806 5810 5814 5817 5821 5824 5826 5829 5831 5833 5834 5836 5838 5839
5615 5615 5615 5615 5614 5614 5613 5617 5618 5619 5620 5624 5628 5634 5640 5647 5655 5664 5674 5684 5693 5701 5708 5717 5726 5733 5739 5747 5754 5761 5767 5774 5781 5787 5793 5798 5803 5807 5811 5815 5818 5820 5823 5825 5827 5829 5831 5832 5833
5608 5608 5608 5608 5607 5606 5606 5609 5610 5608 5609 5613 5617 5622 5628 5635 5643 5652 5662 5672 5681 5690 5699 5708 5717 5723 5731 5739 5746 5752 5758 5765 5772 5779 5785 5790 5795 5800 5804 5808 5811 5814 5817 5819 5821 5823 5825 5826 5828
5602 5602 5602 5602 5601 5599 5599 5600 5602 5600 5600 5603 5607 5612 5618 5625 5632 5641 5651 5662 5671 5681 5691 5699 5708 5715 5723 5730 5737 5744 5750 5757 5764 5770 5776 5782 5787 5792 5796 5801 5804 5807 5810 5812 5815 5817 5819 5820 5822
5599 5598 5597 5597 5596 5595 5595 5594 5594 5593 5594 5596 5600 5605 5610 5616 5625 5633 5641 5652 5663 5672 5682 5690 5700 5707 5715 5722 5729 5736 5742 5749 5755 5761 5768 5773 5779 5784 5789 5793 5797 5800 5803 5805 5808 5810 5812 5814 5815
5596 5595 5594 5594 5593 5592 5591 5590 5590 5589 5590 5592 5595 5599 5605 5611 5619 5626 5635 5644 5654 5663 5673 5682 5691 5700 5707 5715 5722 5728 5735 5741 5748 5754 5760 5765 5771 5776 5781 5785 5789 5792 5795 5798 5801 5803 5805 5806 5808
5594 5593 5592 5592 5591 5590 5589 5588 5587 5587 5588 5590 5593 5597 5602 5608 5615 5623 5630 5639 5648 5657 5666 5675 5685 5693 5701 5709 5716 5722 5729 5735 5742 5747 5752 5758 5763 5768 5773 5777 5781 5784 5787 5790 5793 5795 5797 5799 5801
5592 5591 5591 5591 5590 5589 5589 5589 5588 5588 5588 5590 5592 5596 5601 5607 5614 5621 5628 5637 5645 5652 5660 5669 5678 5687 5695 5702 5709 5715 5722 5728 5734 5739 5745 5750 5755 5760 5765 5769 5773 5776 5779 5782 5785 5787 5789 5791 5793
5591 5591 5590 5590 5590 5590 5590 5589 5590 5589 5590 5591 5594 5597 5601 5606 5613 5620 5627 5634 5641 5648 5657 5665 5674 5682 5690 5697 5703 5710 5716 5723 5728 5733 5738 5743 5748 5752 5756 5761 5764 5768 5771 5774 5777 5779 5782 5783 5785
5591 5591 5591 5590 5590 5591 5591 5590 5591 5591 5592 5594 5596 5599 5602 5607 5613 5619 5626 5632 5638 5645 5654 5662 5670 5678 5685 5692 5698 5704 5711 5717 5722 5727 5732 5736 5741 5745 5749 5753 5757 5760 5763 5766 5769 5771 5773 5775 5776
5591 5591 5592 5592 5592 5593 5593 5593 5593 5593 5595 5596 5599 5602 5605 5610 5615 5621 5626 5631 5637 5644 5651 5658 5666 5674 5681 5688 5694 5699 5705 5711 5716 5721 5726 5730 5734 5738 5741 5745 5749 5752 5755 5758 5760 5763 5765 5767 5768
5592 5593 5594 5594 5594 5595 5595 5595 5596 5597 5598 5600 5602 5605 5608 5612 5617 5623 5628 5633 5638 5644 5650 5657 5664 5671 5678 5684 5689 5695 5700 5705 5710 5715 5720 5723 5727 5731 5734 5738 5741 5744 5746 5749 5752 5755 5756 5758 5759
5594 5594 5595 5596 5597 5597 5598 5598 5600 5600 5602 5603 5605 5608 5611 5615 5619 5624 5629 5633 5639 5644 5650 5656 5662 5668 5675 5681 5685 5690 5695 5700 5704 5709 5713 5717 5721 5724 5727 5730 5733 5736 5738 5741 5744 5745 5747 5748 5750
5596 5596 5597 5598 5599 5600 5601 5602 5603 5604 5605 5607 5609 5612 5614 5618 5622 5626 5631 5636 5641 5646 5650 5655 5660 5666 5672 5677 5681 5685 5691 5695 5699 5703 5707 5710 5714 5716 5719 5722 5725 5727 5730 5732 5734 5736 5737 5738 5739
5599 5599 5600 5601 5602 5603 5604 5604 5606 5607 5609 5611 5613 5615 5618 5621 5625 5629 5633 5638 5641 5646 5650 5654 5659 5664 5669 5673 5677 5681 5685 5689 5693 5697 5700 5703 5706 5709 5711 5714 5716 5718 5720 5722 5724 5725 5726 5727 5728
5602 5602 5603 5603 5604 5606 5606 5610 5609 5610 5612 5614 5616 5618 5621 5624 5628 5632 5635 5639 5642 5646 5650 5654 5658 5662 5666 5670 5674 5677 5680 5684 5687 5690 5693 5696 5698 5700 5702 5705 5707 5709 5711 5712 5713 5714 5715 5716 5717
5604 5605 5606 5607 5607 5608 5610 5614 5612 5614 5616 5618 5620 5622 5624 5627 5630 5634 5637 5640 5643 5646 5650 5653 5657 5660 5663 5667 5670 5672 5676 5678 5681 5683 5685 5688 5690 5692 5694 5695 5697 5698 5700 5701 5702 5703 5704 5705 5706